• MPC Preparation (Info)

  • MPEC 2006-B69 : 2006 BD55

    The following Minor Planet Electronic Circular may be linked-to from your own Web pages, but must not otherwise be redistributed electronically.

    A form allowing access to any MPEC is at the bottom of this page.


    Read MPEC 2006-B68 Read MPEC 2006-B70


    M.P.E.C. 2006-B69                                Issued 2006 Jan. 28, 18:13 UT
    
         The Minor Planet Electronic Circulars contain information on unusual
             minor planets and routine data on comets.  They are published
       on behalf of Commission 20 of the International Astronomical Union by the
              Minor Planet Center, Smithsonian Astrophysical Observatory,
                              Cambridge, MA 02138, U.S.A.
    
                      Supported in part by the Brinson Foundation
                      Supported in part by the TABASGO Foundation
                 Prepared using the Tamkin Foundation Computer Network
    
                                  MPC@CFA.HARVARD.EDU
              URL http://cfa-www.harvard.edu/iau/mpc.html  ISSN 1523-6714
    
                                       2006 BD55
    
    Observations:
         K06B55D* C2006 01 25.26474 07 38 27.78 +24 05 28.2          21.0 V EB069G96
         K06B55D  C2006 01 25.27377 07 38 28.39 +24 06 16.4          20.9 V EB069G96
         K06B55D  C2006 01 25.28285 07 38 28.96 +24 07 04.6          21.0 V EB069G96
         K06B55D  C2006 01 25.29198 07 38 29.61 +24 07 53.1          20.8 V EB069G96
         K06B55D  C2006 01 25.91003 07 39 27.14 +25 00 34.2                 EB069J95
         K06B55D  C2006 01 25.91633 07 39 27.67 +25 01 04.5                 EB069J95
         K06B55D  C2006 01 25.94044 07 39 29.29 +25 03 07.7                 EB069J95
         K06B55D  C2006 01 25.94844 07 39 29.96 +25 03 47.4          20.8 R EB069J95
         K06B55D tC2006 01 27.17638 07 41 19.21 +26 40 42.7          21.4 V EB069291
         K06B55D tC2006 01 27.18055 07 41 19.47 +26 41 01.8          21.5 V EB069291
         K06B55D tC2006 01 27.18498 07 41 19.82 +26 41 21.5          21.2 V EB069291
         K06B55D FC2006 01 27.91586 07 42 19.65 +27 33 48.2                 EB069246
         K06B55D HC2006 01 27.91818 07 42 19.92 +27 33 55.2                 EB069246
         K06B55D HC2006 01 27.92045 07 42 19.93 +27 34 06.8                 EB069246
         K06B55D  C2006 01 28.26019 07 42 48.31 +27 57 39.2          21.4 V EB069G96
         K06B55D  C2006 01 28.26549 07 42 48.60 +27 58 00.7          21.4 V EB069G96
         K06B55D  C2006 01 28.27078 07 42 48.92 +27 58 22.5          21.8 V EB069G96
         K06B55D  C2006 01 28.27606 07 42 49.24 +27 58 43.7          21.9 V EB069G96
    
    Observer details:
    246 Klet Observatory-KLENOT.  Observers J. Ticha, M. Tichy.  Measurer M. Tichy.
        1.06-m KLENOT Telescope + CCD.
    291 LPL/Spacewatch II.  Observer A. S. Descour.  1.8-m f/2.7 reflector + CCD.
    G96 Mt. Lemmon Survey.  Observers S. M. Larson, E. J. Christensen.  Measurers
        E. C. Beshore, E. J. Christensen, G. J. Garradd, A. D. Grauer, R. E. Hill,
        R. A. Kowalski, S. M. Larson, R. H. McNaught.  1.5-m reflector + CCD.
    J95 Great Shefford.  Observer P. Birtwhistle.  0.40-m f/6.0 Schmidt-Cassegrain
        + CCD.
    
    Orbital elements:
    2006 BD55                                                Earth MOID = 0.0733 AU
    Epoch 2006 Mar. 6.0 TT = JDT 2453800.5                  MPC
    M  62.27828              (2000.0)            P               Q
    n   0.59465051     Peri.  286.36677     +0.64136464     -0.74356001
    a   1.4005379      Node   122.18822     +0.76116856     +0.58571636
    e   0.3586494      Incl.   12.91335     +0.09630065     +0.32257536
    P   1.66           H   24.5           G   0.15           U   9
    Residuals in seconds of arc
    060125 G96  0.1+  0.4-    060125 J95  1.5-  0.3+    060127 246  1.6+  0.9-
    060125 G96  0.2+  0.2-    060125 J95  0.2-  0.1-    060127 246  0.2-  1.1+
    060125 G96  0.3-  0.2-    060127 291  0.4-  0.0     060128 G96  0.4-  0.7-
    060125 G96  0.2+  0.0     060127 291  0.6-  0.1+    060128 G96  0.7-  0.7-
    060125 J95  0.9-  0.1-    060127 291  0.2+  0.3-    060128 G96  0.6-  0.4-
    060125 J95  0.1+  1.6-    060127 246  0.1+  1.8+    060128 G96  0.6-  0.6-
    
    Ephemeris:
    2006 BD55                a,e,i = 1.40, 0.36, 13                  q = 0.8982
    Date    TT    R. A. (2000) Decl.     Delta      r     Elong.  Phase     V
    2006 01 25    07 38.05   +23 41.9    0.134    1.115   167.4    11.1    21.1
    2006 01 27    07 41.03   +26 27.6    0.146    1.126   164.9    13.2    21.3
    2006 01 29    07 43.80   +28 46.0    0.159    1.137   162.3    15.2    21.6
    2006 01 31    07 46.43   +30 41.9    0.172    1.148   159.9    17.2    21.9
    2006 02 02    07 48.94   +32 19.1    0.185    1.159   157.5    19.0    22.1
    2006 02 04    07 51.37   +33 40.5    0.200    1.170   155.3    20.6    22.4
    
    Kyle E. Smalley              (C) Copyright 2006 MPC           M.P.E.C. 2006-B69
    

    Read MPEC 2006-B68 Read MPEC 2006-B70


    MPEC number:

    Enter an MPEC number in one of the following forms:

    • 1997-B01 (the full form)
    • J97B01 (the packed version of the full form)
    • B01 (the abbreviated form)